User: anonymous   Login
Location: Niedergestelen
(46.3129°N, 7.7822°E)
Time: 07:49:20
(UTC+00:00)
Language:

SL-16 R/B - Orbit

View from above orbital plane
View from above orbital plane
View from above satellite
View from above satellite

Ground track
Ground track

The orbit data is extracted from the following two-line orbital elements,

1 28353U 04021B   21058.89819510 -.00000188  00000-0 -73397-4 0  9997
2 28353  71.0015 123.5854 0007457 295.7161  64.3191 14.14242529863251
Epoch (UTC): 27 February 2021 21:33:24
Eccentricity: 0.0007457
inclination: 71.0015°
perigee height: 839 km
apogee height: 850 km
right ascension of ascending node: 123.5854°
argument of perigee: 295.7161°
revolutions per day: 14.14242529
mean anomaly at epoch: 64.3191°
orbit number at epoch: 86325

The dashed part of the orbit path shows where the satellite is in the earth's shadow,  

DLR